• In Österreich
  • Länderverzeichnis
  • Für 7 Tage
  • Wassertemperatur
  • Satellitenkarten
  • Wetterkarte
  • News
  • Widgets
  • user-avatar
    Anmelden

    Stündliche Wetter Baltschik

    Heute, 20 Oktober, Samstag

    Zeit Temperatur Niederschläge Wind Luftdruck Luftfeuchtigkeit
    00:00 +15°C° 0 mm 1 m/S 740 mmHg 81%
    01:00 +15°C° 0 mm 1 m/S 740 mmHg 81%
    02:00 +14°C° 0 mm 1 m/S 740 mmHg 81%
    03:00 +14°C° 0 mm 2 m/S 740 mmHg 81%
    04:00 +14°C° 0 mm 2 m/S 740 mmHg 81%
    05:00 +13°C° 0 mm 2 m/S 740 mmHg 81%
    06:00 +14°C° 0 mm 2 m/S 741 mmHg 77%
    07:00 +14°C° 0 mm 2 m/S 741 mmHg 74%
    08:00 +14°C° 0 mm 3 m/S 741 mmHg 71%
    09:00 +16°C° 0.1 mm 3 m/S 741 mmHg 64%
    10:00 +17°C° 0.1 mm 3 m/S 741 mmHg 58%
    11:00 +19°C° 0.1 mm 4 m/S 741 mmHg 51%
    12:00 +19°C° 0 mm 4 m/S 741 mmHg 49%
    13:00 +20°C° 0 mm 4 m/S 741 mmHg 47%
    14:00 +20°C° 0 mm 4 m/S 741 mmHg 44%
    15:00 +20°C° 0 mm 4 m/S 741 mmHg 47%
    16:00 +19°C° 0 mm 3 m/S 741 mmHg 49%
    17:00 +18°C° 0 mm 3 m/S 741 mmHg 52%
    18:00 +17°C° 0 mm 3 m/S 741 mmHg 55%
    19:00 +16°C° 0 mm 3 m/S 741 mmHg 59%
    20:00 +16°C° 0 mm 2 m/S 741 mmHg 63%
    21:00 +14°C° 0 mm 3 m/S 741 mmHg 66%
    22:00 +14°C° 0 mm 3 m/S 741 mmHg 69%
    23:00 +13°C° 0 mm 3 m/S 741 mmHg 72%

    Morgen, 21 Oktober, Sonntag

    Zeit Temperatur Niederschläge Wind Luftdruck Luftfeuchtigkeit
    00:00 +13°C° 0 mm 3 m/S 741 mmHg 76%
    01:00 +13°C° 0 mm 3 m/S 741 mmHg 79%
    02:00 +12°C° 0 mm 3 m/S 740 mmHg 82%
    03:00 +12°C° 0 mm 3 m/S 740 mmHg 83%
    04:00 +12°C° 0 mm 3 m/S 740 mmHg 84%
    05:00 +11°C° 0 mm 3 m/S 740 mmHg 85%
    06:00 +12°C° 0 mm 3 m/S 740 mmHg 84%
    07:00 +12°C° 0 mm 3 m/S 740 mmHg 82%
    08:00 +12°C° 0 mm 3 m/S 741 mmHg 80%
    09:00 +14°C° 0 mm 3 m/S 741 mmHg 73%
    10:00 +17°C° 0 mm 3 m/S 741 mmHg 66%
    11:00 +18°C° 0 mm 3 m/S 741 mmHg 58%
    12:00 +19°C° 0.1 mm 4 m/S 741 mmHg 57%
    13:00 +19°C° 0.1 mm 4 m/S 741 mmHg 55%
    14:00 +20°C° 0.1 mm 4 m/S 741 mmHg 53%
    15:00 +19°C° 0.2 mm 3 m/S 741 mmHg 56%
    16:00 +18°C° 0.2 mm 3 m/S 741 mmHg 59%
    17:00 +17°C° 0.2 mm 2 m/S 741 mmHg 63%
    18:00 +17°C° 0.1 mm 2 m/S 741 mmHg 65%
    19:00 +16°C° 0.1 mm 2 m/S 741 mmHg 68%
    20:00 +15°C° 0.1 mm 1 m/S 742 mmHg 71%
    21:00 +15°C° 0 mm 2 m/S 742 mmHg 72%
    22:00 +14°C° 0 mm 2 m/S 742 mmHg 74%
    23:00 +14°C° 0 mm 2 m/S 742 mmHg 75%

    übermorgen, 22 Oktober, Montag

    Zeit Temperatur Niederschläge Wind Luftdruck Luftfeuchtigkeit
    00:00 +14°C° 0 mm 2 m/S 742 mmHg 76%
    01:00 +12°C° 0 mm 3 m/S 742 mmHg 76%
    02:00 +12°C° 0 mm 3 m/S 742 mmHg 77%
    03:00 +12°C° 0 mm 3 m/S 742 mmHg 78%
    04:00 +11°C° 0 mm 3 m/S 742 mmHg 79%
    05:00 +11°C° 0 mm 4 m/S 742 mmHg 80%
    06:00 +11°C° 0 mm 4 m/S 742 mmHg 79%
    07:00 +11°C° 0 mm 4 m/S 742 mmHg 77%
    08:00 +12°C° 0 mm 5 m/S 743 mmHg 76%
    09:00 +13°C° 0 mm 5 m/S 743 mmHg 70%
    10:00 +14°C° 0 mm 5 m/S 743 mmHg 64%
    11:00 +16°C° 0 mm 5 m/S 743 mmHg 58%
    12:00 +17°C° 0 mm 4 m/S 743 mmHg 55%
    13:00 +18°C° 0 mm 4 m/S 742 mmHg 53%
    14:00 +18°C° 0 mm 4 m/S 742 mmHg 50%
    15:00 +18°C° 0 mm 4 m/S 742 mmHg 53%
    16:00 +17°C° 0 mm 3 m/S 742 mmHg 56%
    17:00 +16°C° 0 mm 3 m/S 741 mmHg 59%
    18:00 +15°C° 0 mm 2 m/S 741 mmHg 63%
    19:00 +14°C° 0 mm 2 m/S 742 mmHg 67%
    20:00 +13°C° 0 mm 1 m/S 742 mmHg 71%
    21:00 +13°C° 0 mm 1 m/S 742 mmHg 72%
    22:00 +13°C° 0 mm 1 m/S 742 mmHg 73%
    23:00 +12°C° 0 mm 1 m/S 741 mmHg 74%

    23 Oktober, Dienstag

    Zeit Temperatur Niederschläge Wind Luftdruck Luftfeuchtigkeit
    00:00 +12°C° 0 mm 2 m/S 741 mmHg 74%
    01:00 +12°C° 0 mm 2 m/S 741 mmHg 74%
    02:00 +10°C° 0 mm 2 m/S 741 mmHg 74%
    03:00 +10°C° 0 mm 2 m/S 741 mmHg 75%
    04:00 +10°C° 0 mm 2 m/S 741 mmHg 76%
    05:00 +9°C° 0 mm 2 m/S 741 mmHg 76%
    06:00 +10°C° 0 mm 2 m/S 741 mmHg 74%
    07:00 +10°C° 0 mm 2 m/S 741 mmHg 71%
    08:00 +12°C° 0 mm 2 m/S 741 mmHg 69%
    09:00 +13°C° 0 mm 2 m/S 741 mmHg 65%
    10:00 +15°C° 0 mm 2 m/S 741 mmHg 60%
    11:00 +16°C° 0 mm 2 m/S 741 mmHg 56%
    12:00 +17°C° 0 mm 2 m/S 741 mmHg 55%
    13:00 +17°C° 0 mm 2 m/S 741 mmHg 54%
    14:00 +17°C° 0 mm 2 m/S 740 mmHg 53%
    15:00 +17°C° 0 mm 2 m/S 740 mmHg 57%
    16:00 +16°C° 0 mm 2 m/S 740 mmHg 61%
    17:00 +15°C° 0 mm 2 m/S 739 mmHg 64%
    18:00 +15°C° 0 mm 2 m/S 739 mmHg 69%
    19:00 +14°C° 0 mm 2 m/S 739 mmHg 74%
    20:00 +14°C° 0 mm 1 m/S 739 mmHg 79%
    21:00 +13°C° 0 mm 1 m/S 739 mmHg 82%
    22:00 +13°C° 0 mm 1 m/S 739 mmHg 85%
    23:00 +13°C° 0 mm 1 m/S 738 mmHg 88%

    24 Oktober, Mittwoch

    Zeit Temperatur Niederschläge Wind Luftdruck Luftfeuchtigkeit
    00:00 +12°C° 0 mm 1 m/S 738 mmHg 89%
    01:00 +12°C° 0 mm 1 m/S 737 mmHg 90%
    02:00 +12°C° 0 mm 1 m/S 736 mmHg 92%
    03:00 +11°C° 0 mm 1 m/S 736 mmHg 91%
    04:00 +10°C° 0 mm 2 m/S 735 mmHg 91%
    05:00 +10°C° 0 mm 2 m/S 735 mmHg 91%
    06:00 +10°C° 0 mm 2 m/S 734 mmHg 85%
    07:00 +11°C° 0 mm 3 m/S 734 mmHg 80%
    08:00 +11°C° 0 mm 3 m/S 734 mmHg 75%
    09:00 +13°C° 0 mm 4 m/S 733 mmHg 66%
    10:00 +14°C° 0 mm 5 m/S 732 mmHg 57%
    11:00 +15°C° 0 mm 5 m/S 732 mmHg 49%
    12:00 +16°C° 0.1 mm 6 m/S 731 mmHg 45%
    13:00 +16°C° 0.1 mm 6 m/S 730 mmHg 40%
    14:00 +16°C° 0.1 mm 6 m/S 729 mmHg 36%
    15:00 +15°C° 0.1 mm 6 m/S 729 mmHg 38%
    16:00 +14°C° 0.1 mm 6 m/S 729 mmHg 41%
    17:00 +14°C° 0.1 mm 5 m/S 728 mmHg 43%
    18:00 +13°C° 0 mm 6 m/S 728 mmHg 46%
    19:00 +11°C° 0 mm 6 m/S 728 mmHg 49%
    20:00 +11°C° 0 mm 7 m/S 728 mmHg 51%
    21:00 +10°C° 0.1 mm 8 m/S 728 mmHg 56%
    22:00 +9°C° 0.1 mm 8 m/S 728 mmHg 60%
    23:00 +7°C° 0.1 mm 9 m/S 729 mmHg 65%

    25 Oktober, Donnerstag

    Zeit Temperatur Niederschläge Wind Luftdruck Luftfeuchtigkeit
    00:00 +6°C° 0.1 mm 9 m/S 729 mmHg 62%
    01:00 +5°C° 0.1 mm 9 m/S 729 mmHg 58%
    02:00 +4°C° 0.1 mm 8 m/S 730 mmHg 55%
    03:00 +4°C° 0 mm 8 m/S 730 mmHg 55%
    04:00 +3°C° 0 mm 7 m/S 731 mmHg 55%
    05:00 +3°C° 0 mm 6 m/S 732 mmHg 55%
    06:00 +3°C° 0 mm 6 m/S 732 mmHg 52%
    07:00 +3°C° 0 mm 7 m/S 733 mmHg 50%
    08:00 +3°C° 0 mm 7 m/S 734 mmHg 47%
    09:00 +4°C° 0 mm 7 m/S 734 mmHg 43%
    10:00 +5°C° 0 mm 7 m/S 734 mmHg 39%
    11:00 +6°C° 0 mm 7 m/S 735 mmHg 34%
    12:00 +8°C° 0 mm 7 m/S 735 mmHg 33%
    13:00 +8°C° 0 mm 7 m/S 735 mmHg 31%
    14:00 +9°C° 0 mm 7 m/S 735 mmHg 29%
    15:00 +8°C° 0 mm 6 m/S 736 mmHg 30%
    16:00 +8°C° 0 mm 5 m/S 736 mmHg 31%
    17:00 +7°C° 0 mm 4 m/S 736 mmHg 32%
    18:00 +8°C° 0 mm 3 m/S 737 mmHg 34%
    19:00 +7°C° 0 mm 3 m/S 737 mmHg 35%
    20:00 +5°C° 0 mm 3 m/S 738 mmHg 37%
    21:00 +5°C° 0 mm 3 m/S 738 mmHg 38%
    22:00 +5°C° 0 mm 2 m/S 738 mmHg 39%
    23:00 +5°C° 0 mm 2 m/S 738 mmHg 41%
    Mehr zeigen